When you browse on this site, cookies collect data to enhance your experience and personalize the content and advertising you see.
Visit our Privacy Policy to learn more. By continuing to use the site, you agree to this use of cookies and data.
  • In Latvia
  • List of Countries
  • For 7 days
  • Water Temperature
  • Weather Map
  • Weather Widgets
  • user-avatar
    Login

    Hourly Weather Zabolotno

    Today, 25 February, Tuesday

    Time Temperature Precipitation Wind Pressure Humidity
    00:00 -2°C° 0 mm 3 mps 736 mmHg 75%
    01:00 -2°C° 0 mm 3 mps 736 mmHg 77%
    02:00 -2°C° 0 mm 3 mps 736 mmHg 80%
    03:00 -2°C° 0 mm 3 mps 736 mmHg 81%
    04:00 -2°C° 0 mm 2 mps 736 mmHg 83%
    05:00 -2°C° 0 mm 2 mps 736 mmHg 85%
    06:00 -3°C° 0 mm 2 mps 736 mmHg 85%
    07:00 -3°C° 0 mm 2 mps 736 mmHg 85%
    08:00 -3°C° 0 mm 2 mps 736 mmHg 85%
    09:00 -2°C° 0 mm 2 mps 736 mmHg 77%
    10:00 -1°C° 0 mm 2 mps 735 mmHg 70%
    11:00 +1°C° 0 mm 2 mps 735 mmHg 62%
    12:00 +2°C° 0 mm 2 mps 735 mmHg 59%
    13:00 +2°C° 0 mm 2 mps 734 mmHg 56%
    14:00 +2°C° 0 mm 3 mps 734 mmHg 52%
    15:00 +2°C° 0 mm 2 mps 733 mmHg 56%
    16:00 +2°C° 0 mm 2 mps 733 mmHg 60%
    17:00 +1°C° 0 mm 2 mps 732 mmHg 65%
    18:00 0°C° 0.2 mm 3 mps 732 mmHg 75%
    19:00 -1°C° 0.2 mm 4 mps 731 mmHg 85%
    20:00 -2°C° 0.2 mm 4 mps 731 mmHg 96%
    21:00 -2°C° 0.5 mm 4 mps 730 mmHg 96%
    22:00 -1°C° 0.5 mm 4 mps 729 mmHg 96%
    23:00 -1°C° 0.5 mm 4 mps 728 mmHg 96%

    Tomorrow, 26 February, Wednesday

    Time Temperature Precipitation Wind Pressure Humidity
    00:00 0°C° 0.1 mm 3 mps 728 mmHg 96%
    01:00 +1°C° 0.1 mm 3 mps 727 mmHg 96%
    02:00 +1°C° 0.1 mm 3 mps 727 mmHg 96%
    03:00 +1°C° 0.4 mm 3 mps 726 mmHg 97%
    04:00 +2°C° 0.4 mm 2 mps 726 mmHg 97%
    05:00 +2°C° 0.4 mm 2 mps 725 mmHg 97%
    06:00 +2°C° 1.5 mm 2 mps 725 mmHg 97%
    07:00 +1°C° 1.5 mm 2 mps 725 mmHg 98%
    08:00 +1°C° 1.5 mm 2 mps 725 mmHg 98%
    09:00 +1°C° 0.2 mm 2 mps 725 mmHg 95%
    10:00 +1°C° 0.2 mm 2 mps 725 mmHg 93%
    11:00 +2°C° 0.2 mm 2 mps 725 mmHg 91%
    12:00 +1°C° 0 mm 3 mps 726 mmHg 88%
    13:00 +2°C° 0 mm 3 mps 726 mmHg 86%
    14:00 +2°C° 0 mm 3 mps 726 mmHg 84%
    15:00 +2°C° 0 mm 3 mps 726 mmHg 85%
    16:00 +2°C° 0 mm 2 mps 726 mmHg 86%
    17:00 +3°C° 0 mm 1 mps 727 mmHg 87%
    18:00 +2°C° 0 mm 1 mps 727 mmHg 88%
    19:00 +2°C° 0 mm 1 mps 727 mmHg 89%
    20:00 +2°C° 0 mm 1 mps 727 mmHg 91%
    21:00 +2°C° 0 mm 1 mps 727 mmHg 91%
    22:00 +1°C° 0 mm 1 mps 727 mmHg 90%
    23:00 +1°C° 0 mm 1 mps 727 mmHg 90%

    Day after tomorrow, 27 February, Thursday

    Time Temperature Precipitation Wind Pressure Humidity
    00:00 +1°C° 0 mm 1 mps 727 mmHg 91%
    01:00 +1°C° 0 mm 1 mps 727 mmHg 91%
    02:00 +1°C° 0 mm 1 mps 727 mmHg 92%
    03:00 +1°C° 0 mm 1 mps 727 mmHg 92%
    04:00 +1°C° 0 mm 1 mps 727 mmHg 93%
    05:00 +1°C° 0 mm 1 mps 727 mmHg 93%
    06:00 +1°C° 0 mm 1 mps 727 mmHg 93%
    07:00 -1°C° 0 mm 2 mps 727 mmHg 94%
    08:00 -1°C° 0 mm 2 mps 727 mmHg 94%
    09:00 +1°C° 0.1 mm 2 mps 727 mmHg 93%
    10:00 +1°C° 0.1 mm 2 mps 727 mmHg 91%
    11:00 +2°C° 0.1 mm 2 mps 727 mmHg 89%
    12:00 +2°C° 0 mm 2 mps 727 mmHg 86%
    13:00 +2°C° 0 mm 2 mps 727 mmHg 83%
    14:00 +3°C° 0 mm 2 mps 727 mmHg 80%
    15:00 +1°C° 0.1 mm 3 mps 727 mmHg 81%
    16:00 0°C° 0.1 mm 3 mps 727 mmHg 82%
    17:00 0°C° 0.1 mm 3 mps 727 mmHg 83%
    18:00 -1°C° 0 mm 3 mps 727 mmHg 83%
    19:00 -1°C° 0 mm 2 mps 727 mmHg 84%
    20:00 -2°C° 0 mm 2 mps 727 mmHg 84%
    21:00 -2°C° 0 mm 3 mps 727 mmHg 84%
    22:00 -2°C° 0 mm 3 mps 727 mmHg 84%
    23:00 -4°C° 0 mm 3 mps 727 mmHg 84%

    28 February, Friday

    Time Temperature Precipitation Wind Pressure Humidity
    00:00 -4°C° 0 mm 3 mps 728 mmHg 84%
    01:00 -4°C° 0 mm 4 mps 728 mmHg 84%
    02:00 -4°C° 0 mm 4 mps 728 mmHg 83%
    03:00 -4°C° 0 mm 4 mps 728 mmHg 83%
    04:00 -4°C° 0 mm 4 mps 729 mmHg 83%
    05:00 -5°C° 0 mm 5 mps 729 mmHg 83%
    06:00 -4°C° 0 mm 4 mps 729 mmHg 78%
    07:00 -4°C° 0 mm 4 mps 730 mmHg 74%
    08:00 -4°C° 0 mm 4 mps 730 mmHg 69%
    09:00 -3°C° 0 mm 4 mps 731 mmHg 66%
    10:00 -3°C° 0 mm 4 mps 731 mmHg 62%
    11:00 -2°C° 0 mm 4 mps 731 mmHg 59%
    12:00 -2°C° 0 mm 4 mps 732 mmHg 57%
    13:00 -2°C° 0 mm 4 mps 732 mmHg 55%
    14:00 -1°C° 0 mm 4 mps 733 mmHg 53%
    15:00 -2°C° 0 mm 4 mps 733 mmHg 57%
    16:00 -1°C° 0 mm 3 mps 733 mmHg 60%
    17:00 -2°C° 0 mm 2 mps 734 mmHg 64%
    18:00 -3°C° 0 mm 2 mps 734 mmHg 69%
    19:00 -3°C° 0 mm 2 mps 734 mmHg 74%
    20:00 -2°C° 0 mm 1 mps 735 mmHg 79%
    21:00 -2°C° 0 mm 1 mps 735 mmHg 78%
    22:00 -4°C° 0 mm 2 mps 735 mmHg 78%
    23:00 -4°C° 0 mm 2 mps 735 mmHg 78%

    29 February, Saturday

    Time Temperature Precipitation Wind Pressure Humidity
    00:00 -3°C° 0.1 mm 2 mps 735 mmHg 80%
    01:00 -3°C° 0.1 mm 2 mps 735 mmHg 81%
    02:00 -4°C° 0.1 mm 3 mps 735 mmHg 83%
    03:00 -4°C° 0.2 mm 3 mps 735 mmHg 85%
    04:00 -4°C° 0.2 mm 3 mps 735 mmHg 88%
    05:00 -4°C° 0.2 mm 3 mps 735 mmHg 90%
    06:00 -4°C° 0.1 mm 3 mps 735 mmHg 88%
    07:00 -5°C° 0.1 mm 3 mps 735 mmHg 87%
    08:00 -5°C° 0.1 mm 3 mps 735 mmHg 85%
    09:00 -4°C° 0.1 mm 3 mps 736 mmHg 85%
    10:00 -4°C° 0.1 mm 4 mps 736 mmHg 85%
    11:00 -3°C° 0.1 mm 4 mps 736 mmHg 85%
    12:00 -3°C° 0.3 mm 4 mps 736 mmHg 84%
    13:00 -2°C° 0.3 mm 4 mps 737 mmHg 83%
    14:00 -2°C° 0.3 mm 4 mps 737 mmHg 82%
    15:00 -2°C° 0.2 mm 4 mps 737 mmHg 85%
    16:00 -3°C° 0.2 mm 4 mps 737 mmHg 88%
    17:00 -2°C° 0.2 mm 3 mps 738 mmHg 91%
    18:00 -2°C° 0.2 mm 3 mps 738 mmHg 91%
    19:00 -2°C° 0.2 mm 3 mps 739 mmHg 92%
    20:00 -4°C° 0.2 mm 3 mps 739 mmHg 93%
    21:00 -4°C° 0 mm 3 mps 739 mmHg 91%
    22:00 -4°C° 0 mm 3 mps 740 mmHg 89%
    23:00 -4°C° 0 mm 3 mps 740 mmHg 87%

    1 March, Sunday

    Time Temperature Precipitation Wind Pressure Humidity
    00:00 -5°C° 0 mm 3 mps 740 mmHg 88%
    01:00 -4°C° 0 mm 2 mps 741 mmHg 88%
    02:00 -5°C° 0 mm 2 mps 741 mmHg 88%
    03:00 -5°C° 0 mm 2 mps 741 mmHg 88%
    04:00 -3°C° 0 mm 1 mps 741 mmHg 87%
    05:00 -3°C° 0 mm 1 mps 742 mmHg 87%
    06:00 -3°C° 0 mm 1 mps 742 mmHg 86%
    07:00 -3°C° 0 mm 1 mps 742 mmHg 85%
    08:00 -3°C° 0 mm 1 mps 742 mmHg 84%
    09:00 -3°C° 0 mm 2 mps 742 mmHg 78%
    10:00 -2°C° 0 mm 2 mps 742 mmHg 72%
    11:00 -1°C° 0 mm 2 mps 742 mmHg 66%
    12:00 0°C° 0 mm 3 mps 742 mmHg 65%
    13:00 0°C° 0 mm 3 mps 742 mmHg 64%
    14:00 -1°C° 0 mm 4 mps 742 mmHg 63%
    15:00 -1°C° 0 mm 4 mps 742 mmHg 64%
    16:00 -1°C° 0 mm 4 mps 741 mmHg 66%
    17:00 -2°C° 0 mm 4 mps 741 mmHg 67%
    18:00 -2°C° 0 mm 4 mps 741 mmHg 65%
    19:00 -2°C° 0 mm 4 mps 741 mmHg 63%
    20:00 -2°C° 0 mm 5 mps 740 mmHg 62%
    21:00 -4°C° 0.1 mm 5 mps 740 mmHg 71%
    22:00 -4°C° 0.1 mm 5 mps 740 mmHg 79%
    23:00 -4°C° 0.1 mm 5 mps 740 mmHg 88%
    Show more